Location: Ikejouine
(32.5142°N, 5.4699°W)
Time: 22:27:16
(UTC+00:00)

Cosmos 1461 - Pass Details

Date: 09 April 2020
Orbit: 507 x 660 km, 65.0° (Epoch: 02 June)

Event Time Altitude Azimuth Distance (km) Brightness Sun altitude
Rises 20:37:10 0° 333° (NNW) 2,923 7.4 -22.7°
Reaches altitude 10° 20:39:26 10° 334° (NNW) 2,031 6.4 -23.1°
Maximum altitude 20:44:04 83° 61° (ENE) 660 3.0 -24.0°
Enters shadow 20:44:12 81° 95° (E) 663 3.0 -24.0°
